Time,TemperatureF,DewpointF,PressureIn,WindDirection,WindDirectionDegrees,WindSpeedMPH,WindSpeedGustMPH,Humidity,HourlyPrecipIn,Conditions,Clouds,dailyrainin,SoftwareType,DateUTC
2013-05-10 00:00:00,57.7,53.9,29.97,North,352,2.0,2.0,87,0.00,,,0.00,Wunderground v.1.15,2013-05-10 05:00:00,
2013-05-10 00:05:00,57.5,53.3,29.97,North,360,1.0,2.0,86,0.00,,,0.00,Wunderground v.1.15,2013-05-10 05:05:00,
2013-05-10 00:15:00,57.0,52.5,29.97,NNW,339,2.0,5.0,85,0.00,,,0.00,Wunderground v.1.15,2013-05-10 05:15:00,
2013-05-10 00:25:00,56.4,51.6,29.98,NNE,30,2.0,3.0,84,0.00,,,0.00,Wunderground v.1.15,2013-05-10 05:25:00,
2013-05-10 00:30:00,56.2,51.7,29.98,NW,323,1.0,1.0,85,0.00,,,0.00,Wunderground v.1.15,2013-05-10 05:30:00,
2013-05-10 00:40:00,55.7,51.3,29.98,NNE,18,2.0,2.0,85,0.00,,,0.00,Wunderground v.1.15,2013-05-10 05:40:00,
2013-05-10 00:45:00,55.5,51.1,29.98,NNE,14,2.0,2.0,85,0.00,,,0.00,Wunderground v.1.15,2013-05-10 05:45:00,
2013-05-10 00:55:00,54.9,50.5,29.99,NNE,24,2.0,3.0,85,0.00,,,0.00,Wunderground v.1.15,2013-05-10 05:55:00,
2013-05-10 01:00:00,54.6,50.5,29.98,NNW,344,2.0,2.0,86,0.00,,,0.00,Wunderground v.1.15,2013-05-10 06:00:00,
2013-05-10 01:10:00,54.2,50.1,29.98,North,356,1.0,1.0,86,0.00,,,0.00,Wunderground v.1.15,2013-05-10 06:10:00,
2013-05-10 01:15:00,54.0,50.2,29.98,NNW,335,2.0,2.0,87,0.00,,,0.00,Wunderground v.1.15,2013-05-10 06:15:00,
2013-05-10 01:25:00,53.9,50.1,29.98,North,359,2.0,2.0,87,0.00,,,0.00,Wunderground v.1.15,2013-05-10 06:25:00,
2013-05-10 01:35:00,54.0,49.9,29.99,NW,323,2.0,2.0,86,0.00,,,0.00,Wunderground v.1.15,2013-05-10 06:35:00,
2013-05-10 01:40:00,54.0,49.3,29.99,NE,56,2.0,2.0,84,0.00,,,0.00,Wunderground v.1.15,2013-05-10 06:40:00,
2013-05-10 01:50:00,54.0,49.3,29.99,NW,316,2.0,2.0,84,0.00,,,0.00,Wunderground v.1.15,2013-05-10 06:50:00,
2013-05-10 02:00:00,53.9,49.5,29.98,North,352,2.0,2.0,85,0.00,,,0.00,Wunderground v.1.15,2013-05-10 07:00:00,
2013-05-10 02:05:00,53.8,49.1,29.98,North,4,2.0,2.0,84,0.00,,,0.00,Wunderground v.1.15,2013-05-10 07:05:00,
2013-05-10 02:15:00,53.8,49.1,29.99,NE,48,2.0,2.0,84,0.00,,,0.00,Wunderground v.1.15,2013-05-10 07:15:00,
2013-05-10 02:20:00,53.8,49.1,29.99,NNW,339,2.0,3.0,84,0.00,,,0.00,Wunderground v.1.15,2013-05-10 07:20:00,
2013-05-10 02:35:00,53.7,48.7,29.99,NNE,25,3.0,3.0,83,0.00,,,0.00,Wunderground v.1.15,2013-05-10 07:35:00,
2013-05-10 02:40:00,53.6,48.6,29.99,NW,310,2.0,3.0,83,0.00,,,0.00,Wunderground v.1.15,2013-05-10 07:40:00,
2013-05-10 02:50:00,53.6,48.6,29.99,NNW,342,3.0,3.0,83,0.00,,,0.00,Wunderground v.1.15,2013-05-10 07:50:00,
2013-05-10 02:55:00,53.6,48.6,29.99,North,8,2.0,3.0,83,0.00,,,0.00,Wunderground v.1.15,2013-05-10 07:55:00,
2013-05-10 03:00:00,53.5,48.5,29.99,NE,36,2.0,2.0,83,0.00,,,0.00,Wunderground v.1.15,2013-05-10 08:00:00,
2013-05-10 03:10:00,53.3,48.3,29.99,NNE,15,2.0,3.0,83,0.00,,,0.00,Wunderground v.1.15,2013-05-10 08:10:00,
2013-05-10 03:20:00,52.8,47.8,29.99,North,8,3.0,3.0,83,0.00,,,0.00,Wunderground v.1.15,2013-05-10 08:20:00,
2013-05-10 03:30:00,52.6,47.9,29.99,NE,36,2.0,2.0,84,0.00,,,0.00,Wunderground v.1.15,2013-05-10 08:30:00,
2013-05-10 03:35:00,52.6,47.9,29.99,NW,312,1.0,2.0,84,0.00,,,0.00,Wunderground v.1.15,2013-05-10 08:35:00,
2013-05-10 03:45:00,52.6,47.9,30.00,NW,323,1.0,2.0,84,0.00,,,0.00,Wunderground v.1.15,2013-05-10 08:45:00,
2013-05-10 03:50:00,52.6,48.2,30.00,NE,36,1.0,3.0,85,0.00,,,0.00,Wunderground v.1.15,2013-05-10 08:50:00,
2013-05-10 04:00:00,52.5,47.8,30.00,NNE,20,2.0,2.0,84,0.00,,,0.00,Wunderground v.1.15,2013-05-10 09:00:00,
2013-05-10 04:15:00,52.3,47.9,30.00,NW,320,1.0,2.0,85,0.00,,,0.00,Wunderground v.1.15,2013-05-10 09:15:00,
2013-05-10 04:20:00,52.2,47.8,30.01,North,360,1.0,2.0,85,0.00,,,0.00,Wunderground v.1.15,2013-05-10 09:20:00,
2013-05-10 04:30:00,52.1,48.0,30.01,NNE,27,1.0,2.0,86,0.00,,,0.00,Wunderground v.1.15,2013-05-10 09:30:00,
2013-05-10 04:35:00,52.1,48.0,30.01,NE,39,0.0,2.0,86,0.00,,,0.00,Wunderground v.1.15,2013-05-10 09:35:00,
2013-05-10 04:45:00,51.8,47.7,30.02,NNE,27,1.0,1.0,86,0.00,,,0.00,Wunderground v.1.15,2013-05-10 09:45:00,
2013-05-10 04:50:00,51.6,47.5,30.02,NNE,26,1.0,1.0,86,0.00,,,0.00,Wunderground v.1.15,2013-05-10 09:50:00,
2013-05-10 05:00:00,51.3,47.3,30.02,NE,36,1.0,3.0,86,0.00,,,0.00,Wunderground v.1.15,2013-05-10 10:00:00,
2013-05-10 05:05:00,51.2,47.5,30.02,NNE,28,1.0,3.0,87,0.00,,,0.00,Wunderground v.1.15,2013-05-10 10:05:00,
2013-05-10 05:10:00,51.1,47.4,30.02,NW,323,2.0,2.0,87,0.00,,,0.00,Wunderground v.1.15,2013-05-10 10:10:00,
2013-05-10 05:20:00,50.9,47.5,30.02,NNW,346,1.0,1.0,88,0.00,,,0.00,Wunderground v.1.15,2013-05-10 10:20:00,
2013-05-10 05:30:00,50.6,47.2,30.02,NNE,13,2.0,2.0,88,0.00,,,0.00,Wunderground v.1.15,2013-05-10 10:30:00,
2013-05-10 05:35:00,50.6,47.2,30.02,North,11,1.0,2.0,88,0.00,,,0.00,Wunderground v.1.15,2013-05-10 10:35:00,
2013-05-10 05:50:00,50.4,47.0,30.02,NE,41,2.0,2.0,88,0.00,,,0.00,Wunderground v.1.15,2013-05-10 10:50:00,
2013-05-10 05:55:00,50.4,47.0,30.02,NW,326,2.0,5.0,88,0.00,,,0.00,Wunderground v.1.15,2013-05-10 10:55:00,
2013-05-10 06:00:00,50.3,46.9,30.03,NW,317,2.0,2.0,88,0.00,,,0.00,Wunderground v.1.15,2013-05-10 11:00:00,
2013-05-10 06:10:00,50.2,46.8,30.03,NE,46,2.0,2.0,88,0.00,,,0.00,Wunderground v.1.15,2013-05-10 11:10:00,
2013-05-10 06:15:00,50.2,46.8,30.03,North,9,2.0,2.0,88,0.00,,,0.00,Wunderground v.1.15,2013-05-10 11:15:00,
2013-05-10 06:25:00,50.2,46.8,30.03,NNW,336,1.0,1.0,88,0.00,,,0.00,Wunderground v.1.15,2013-05-10 11:25:00,
2013-05-10 06:35:00,50.2,46.8,30.04,NW,315,1.0,1.0,88,0.00,,,0.00,Wunderground v.1.15,2013-05-10 11:35:00,
2013-05-10 06:45:00,50.2,46.8,30.04,NE,51,1.0,1.0,88,0.00,,,0.00,Wunderground v.1.15,2013-05-10 11:45:00,
2013-05-10 06:55:00,50.2,46.8,30.05,NE,35,1.0,1.0,88,0.00,,,0.00,Wunderground v.1.15,2013-05-10 11:55:00,
2013-05-10 07:05:00,50.2,47.1,30.05,NW,325,2.0,3.0,89,0.00,,,0.00,Wunderground v.1.15,2013-05-10 12:05:00,
2013-05-10 07:15:00,50.1,47.0,30.05,NNE,15,2.0,2.0,89,0.00,,,0.00,Wunderground v.1.15,2013-05-10 12:15:00,
2013-05-10 07:20:00,50.1,47.0,30.06,NNW,329,1.0,2.0,89,0.00,,,0.00,Wunderground v.1.15,2013-05-10 12:20:00,
2013-05-10 07:30:00,50.2,47.1,30.06,NW,315,1.0,2.0,89,0.00,,,0.00,Wunderground v.1.15,2013-05-10 12:30:00,
2013-05-10 07:40:00,50.1,47.0,30.07,NW,322,2.0,2.0,89,0.00,,,0.00,Wunderground v.1.15,2013-05-10 12:40:00,
2013-05-10 07:45:00,50.1,47.0,30.07,NNE,33,2.0,2.0,89,0.00,,,0.00,Wunderground v.1.15,2013-05-10 12:45:00,
2013-05-10 07:55:00,50.2,47.1,30.07,NNE,13,1.0,2.0,89,0.00,,,0.00,Wunderground v.1.15,2013-05-10 12:55:00,
2013-05-10 08:01:00,50.3,47.2,30.07,ENE,58,0.0,0.0,89,0.00,,,0.00,Wunderground v.1.15,2013-05-10 13:01:00,
2013-05-10 08:10:00,50.3,46.9,30.07,NNE,33,1.0,1.0,88,0.00,,,0.00,Wunderground v.1.15,2013-05-10 13:10:00,
2013-05-10 08:15:00,50.4,47.0,30.07,NW,316,1.0,2.0,88,0.00,,,0.00,Wunderground v.1.15,2013-05-10 13:15:00,
2013-05-10 08:25:00,50.4,46.7,30.07,West,280,1.0,1.0,87,0.00,,,0.00,Wunderground v.1.15,2013-05-10 13:25:00,
2013-05-10 08:31:00,50.3,46.6,30.06,NW,321,1.0,3.0,87,0.00,,,0.00,Wunderground v.1.15,2013-05-10 13:31:00,
2013-05-10 08:40:00,50.1,46.4,30.06,North,357,1.0,1.0,87,0.00,,,0.00,Wunderground v.1.15,2013-05-10 13:40:00,
2013-05-10 08:50:00,50.2,46.5,30.07,NNE,18,1.0,3.0,87,0.00,,,0.00,Wunderground v.1.15,2013-05-10 13:50:00,
2013-05-10 08:55:00,50.1,46.4,30.07,North,356,0.0,3.0,87,0.00,,,0.00,Wunderground v.1.15,2013-05-10 13:55:00,
2013-05-10 09:05:00,50.1,46.4,30.07,NE,48,1.0,2.0,87,0.00,,,0.00,Wunderground v.1.15,2013-05-10 14:05:00,
2013-05-10 09:10:00,50.2,46.5,30.08,NW,308,1.0,2.0,87,0.00,,,0.00,Wunderground v.1.15,2013-05-10 14:10:00,
2013-05-10 09:15:00,50.2,46.5,30.08,NNE,14,1.0,2.0,87,0.00,,,0.00,Wunderground v.1.15,2013-05-10 14:15:00,
2013-05-10 09:25:00,50.1,46.1,30.08,NW,309,2.0,3.0,86,0.00,,,0.00,Wunderground v.1.15,2013-05-10 14:25:00,
2013-05-10 09:31:00,50.1,46.1,30.08,NNW,334,2.0,2.0,86,0.00,,,0.00,Wunderground v.1.15,2013-05-10 14:31:00,
2013-05-10 09:40:00,50.4,46.4,30.08,North,359,2.0,3.0,86,0.00,,,0.00,Wunderground v.1.15,2013-05-10 14:40:00,
2013-05-10 09:50:00,50.7,46.4,30.08,NNW,335,2.0,2.0,85,0.00,,,0.00,Wunderground v.1.15,2013-05-10 14:50:00,
2013-05-10 10:00:00,51.0,46.6,30.08,WNW,285,2.0,3.0,85,0.00,,,0.00,Wunderground v.1.15,2013-05-10 15:00:00,
2013-05-10 10:10:00,51.6,46.9,30.07,North,9,2.0,3.0,84,0.00,,,0.00,Wunderground v.1.15,2013-05-10 15:10:00,
2013-05-10 10:20:00,51.8,46.5,30.07,WNW,302,2.0,2.0,82,0.00,,,0.00,Wunderground v.1.15,2013-05-10 15:20:00,
2013-05-10 10:25:00,52.1,46.8,30.08,NNW,342,2.0,2.0,82,0.00,,,0.00,Wunderground v.1.15,2013-05-10 15:25:00,
2013-05-10 10:35:00,52.9,47.2,30.07,North,6,2.0,2.0,81,0.00,,,0.00,Wunderground v.1.15,2013-05-10 15:35:00,
2013-05-10 10:41:00,53.7,48.0,30.07,West,278,2.0,3.0,81,0.00,,,0.00,Wunderground v.1.15,2013-05-10 15:41:00,
2013-05-10 10:55:00,53.9,47.9,30.08,NW,317,3.0,3.0,80,0.00,,,0.00,Wunderground v.1.15,2013-05-10 15:55:00,
2013-05-10 11:05:00,54.4,48.0,30.08,NW,309,3.0,4.0,79,0.00,,,0.00,Wunderground v.1.15,2013-05-10 16:05:00,
2013-05-10 11:15:00,55.4,48.3,30.08,NW,313,2.0,3.0,77,0.00,,,0.00,Wunderground v.1.15,2013-05-10 16:15:00,
2013-05-10 11:21:00,55.4,48.0,30.08,North,11,3.0,3.0,76,0.00,,,0.00,Wunderground v.1.15,2013-05-10 16:21:00,
2013-05-10 11:30:00,55.5,48.4,30.08,WNW,285,2.0,2.0,77,0.00,,,0.00,Wunderground v.1.15,2013-05-10 16:30:00,
2013-05-10 11:40:00,55.9,49.1,30.08,NE,40,2.0,3.0,78,0.00,,,0.00,Wunderground v.1.15,2013-05-10 16:40:00,
2013-05-10 11:50:00,56.6,48.4,30.08,WNW,301,3.0,5.0,74,0.00,,,0.00,Wunderground v.1.15,2013-05-10 16:50:00,
2013-05-10 11:55:00,56.9,49.1,30.08,NW,307,3.0,5.0,75,0.00,,,0.00,Wunderground v.1.15,2013-05-10 16:55:00,
2013-05-10 12:10:00,58.9,49.9,30.08,NW,321,2.0,3.0,72,0.00,,,0.00,Wunderground v.1.15,2013-05-10 17:10:00,
2013-05-10 12:15:00,59.3,49.1,30.08,NNE,18,2.0,3.0,69,0.00,,,0.00,Wunderground v.1.15,2013-05-10 17:15:00,
2013-05-10 12:20:00,59.1,50.1,30.08,NW,314,2.0,5.0,72,0.00,,,0.00,Wunderground v.1.15,2013-05-10 17:20:00,
2013-05-10 12:30:00,60.4,50.6,30.08,SW,228,2.0,3.0,70,0.00,,,0.00,Wunderground v.1.15,2013-05-10 17:30:00,
2013-05-10 12:40:00,60.9,50.7,30.08,NNE,32,2.0,2.0,69,0.00,,,0.00,Wunderground v.1.15,2013-05-10 17:40:00,
2013-05-10 12:45:00,61.5,50.0,30.08,NE,56,1.0,2.0,66,0.00,,,0.00,Wunderground v.1.15,2013-05-10 17:45:00,
2013-05-10 12:55:00,62.1,50.2,30.08,East,93,1.0,2.0,65,0.00,,,0.00,Wunderground v.1.15,2013-05-10 17:55:00,
2013-05-10 13:00:00,62.2,50.7,30.08,NW,311,2.0,4.0,66,0.00,,,0.00,Wunderground v.1.15,2013-05-10 18:00:00,
2013-05-10 13:07:00,62.3,51.2,30.08,South,188,2.0,4.0,67,0.00,,,0.00,Wunderground v.1.15,2013-05-10 18:07:00,
2013-05-10 13:15:00,62.8,51.3,30.08,NNW,327,2.0,3.0,66,0.00,,,0.00,Wunderground v.1.15,2013-05-10 18:15:00,
2013-05-10 13:20:00,62.8,50.4,30.07,WNW,302,2.0,4.0,64,0.00,,,0.00,Wunderground v.1.15,2013-05-10 18:20:00,
2013-05-10 13:30:00,64.4,51.1,30.07,North,354,1.0,1.0,62,0.00,,,0.00,Wunderground v.1.15,2013-05-10 18:30:00,
2013-05-10 13:36:00,64.5,50.7,30.07,West,274,2.0,2.0,61,0.00,,,0.00,Wunderground v.1.15,2013-05-10 18:36:00,
2013-05-10 13:45:00,64.8,50.6,30.07,ESE,117,1.0,1.0,60,0.00,,,0.00,Wunderground v.1.15,2013-05-10 18:45:00,
2013-05-10 13:50:00,65.4,50.7,30.07,NE,56,2.0,2.0,59,0.00,,,0.00,Wunderground v.1.15,2013-05-10 18:50:00,
2013-05-10 14:06:00,66.3,52.0,30.06,NNW,340,2.0,2.0,60,0.00,,,0.00,Wunderground v.1.15,2013-05-10 19:06:00,
2013-05-10 14:15:00,66.7,51.9,30.06,NW,309,1.0,1.0,59,0.00,,,0.00,Wunderground v.1.15,2013-05-10 19:15:00,
2013-05-10 14:20:00,66.8,50.1,30.06,WNW,301,2.0,3.0,55,0.00,,,0.00,Wunderground v.1.15,2013-05-10 19:20:00,
2013-05-10 14:30:00,66.4,50.7,30.05,NW,311,2.0,3.0,57,0.00,,,0.00,Wunderground v.1.15,2013-05-10 19:30:00,
2013-05-10 14:35:00,66.2,50.5,30.05,NW,304,2.0,3.0,57,0.00,,,0.00,Wunderground v.1.15,2013-05-10 19:35:00,
2013-05-10 14:45:00,66.9,49.2,30.05,WSW,243,2.0,2.0,53,0.00,,,0.00,Wunderground v.1.15,2013-05-10 19:45:00,
2013-05-10 14:51:00,67.6,50.4,30.05,NNE,32,2.0,2.0,54,0.00,,,0.00,Wunderground v.1.15,2013-05-10 19:51:00,
2013-05-10 15:00:00,67.3,50.1,30.05,North,358,1.0,1.0,54,0.00,,,0.00,Wunderground v.1.15,2013-05-10 20:00:00,
2013-05-10 15:10:00,67.8,51.0,30.04,ENE,74,2.0,2.0,55,0.00,,,0.00,Wunderground v.1.15,2013-05-10 20:10:00,
2013-05-10 15:20:00,67.9,48.6,30.04,NNE,26,3.0,3.0,50,0.00,,,0.00,Wunderground v.1.15,2013-05-10 20:20:00,
2013-05-10 15:25:00,68.1,49.3,30.04,WNW,302,2.0,3.0,51,0.00,,,0.00,Wunderground v.1.15,2013-05-10 20:25:00,
2013-05-10 15:35:00,67.9,47.5,30.04,NNE,20,1.0,2.0,48,0.00,,,0.00,Wunderground v.1.15,2013-05-10 20:35:00,
2013-05-10 15:40:00,67.5,47.7,30.04,NE,43,1.0,3.0,49,0.00,,,0.00,Wunderground v.1.15,2013-05-10 20:40:00,
2013-05-10 15:50:00,68.3,48.9,30.03,WNW,302,2.0,2.0,50,0.00,,,0.00,Wunderground v.1.15,2013-05-10 20:50:00,
2013-05-10 15:55:00,69.4,49.4,30.03,NW,318,2.0,2.0,49,0.00,,,0.00,Wunderground v.1.15,2013-05-10 20:55:00,
2013-05-10 16:05:00,68.9,47.3,30.03,WNW,297,2.0,3.0,46,0.00,,,0.00,Wunderground v.1.15,2013-05-10 21:05:00,
2013-05-10 16:15:00,68.1,46.5,30.02,North,352,2.0,2.0,46,0.00,,,0.00,Wunderground v.1.15,2013-05-10 21:15:00,
2013-05-10 16:20:00,68.2,46.0,30.02,North,9,2.0,2.0,45,0.00,,,0.00,Wunderground v.1.15,2013-05-10 21:20:00,
2013-05-10 16:30:00,68.8,47.2,30.02,NNE,19,3.0,3.0,46,0.00,,,0.00,Wunderground v.1.15,2013-05-10 21:30:00,
2013-05-10 16:35:00,68.6,47.0,30.02,NE,49,2.0,3.0,46,0.00,,,0.00,Wunderground v.1.15,2013-05-10 21:35:00,
2013-05-10 16:45:00,68.4,48.5,30.01,NE,44,1.0,2.0,49,0.00,,,0.00,Wunderground v.1.15,2013-05-10 21:45:00,
2013-05-10 16:55:00,68.1,46.5,30.01,NNW,328,2.0,2.0,46,0.00,,,0.00,Wunderground v.1.15,2013-05-10 21:55:00,
2013-05-10 17:00:00,68.0,48.7,30.01,WNW,293,2.0,2.0,50,0.00,,,0.00,Wunderground v.1.15,2013-05-10 22:00:00,
2013-05-10 17:05:00,68.5,46.9,30.00,SE,124,2.0,2.0,46,0.00,,,0.00,Wunderground v.1.15,2013-05-10 22:05:00,
2013-05-10 17:10:00,68.8,47.7,30.01,NNE,14,2.0,2.0,47,0.00,,,0.00,Wunderground v.1.15,2013-05-10 22:10:00,
2013-05-10 17:15:00,69.0,47.4,30.00,NW,316,2.0,2.0,46,0.00,,,0.00,Wunderground v.1.15,2013-05-10 22:15:00,
2013-05-10 17:25:00,68.9,47.3,30.00,NW,318,2.0,2.0,46,0.00,,,0.00,Wunderground v.1.15,2013-05-10 22:25:00,
2013-05-10 17:30:00,69.0,46.8,30.00,NNW,340,2.0,3.0,45,0.00,,,0.00,Wunderground v.1.15,2013-05-10 22:30:00,
2013-05-10 17:40:00,68.5,45.7,30.00,WNW,302,3.0,3.0,44,0.00,,,0.00,Wunderground v.1.15,2013-05-10 22:40:00,
2013-05-10 17:46:00,68.5,46.9,30.00,North,357,3.0,3.0,46,0.00,,,0.00,Wunderground v.1.15,2013-05-10 22:46:00,
2013-05-10 17:55:00,68.7,46.5,30.00,West,274,2.0,2.0,45,0.00,,,0.00,Wunderground v.1.15,2013-05-10 22:55:00,
2013-05-10 18:00:00,68.9,46.7,30.00,NNE,12,2.0,2.0,45,0.00,,,0.00,Wunderground v.1.15,2013-05-10 23:00:00,
2013-05-10 18:10:00,68.5,46.3,30.00,NW,321,3.0,4.0,45,0.00,,,0.00,Wunderground v.1.15,2013-05-10 23:10:00,
2013-05-10 18:15:00,68.2,46.6,30.00,WNW,298,4.0,4.0,46,0.00,,,0.00,Wunderground v.1.15,2013-05-10 23:15:00,
2013-05-10 18:28:00,68.4,45.6,30.00,NW,308,3.0,5.0,44,0.00,,,0.00,Wunderground v.1.15,2013-05-10 23:28:00,
2013-05-10 18:35:00,68.5,46.3,30.00,NW,323,3.0,3.0,45,0.00,,,0.00,Wunderground v.1.15,2013-05-10 23:35:00,
2013-05-10 18:40:00,68.3,46.1,30.00,WNW,295,3.0,3.0,45,0.00,,,0.00,Wunderground v.1.15,2013-05-10 23:40:00,
2013-05-10 18:50:00,67.8,45.7,29.99,West,278,2.0,2.0,45,0.00,,,0.00,Wunderground v.1.15,2013-05-10 23:50:00,
2013-05-10 19:00:00,67.9,46.3,29.99,NE,37,2.0,2.0,46,0.00,,,0.00,Wunderground v.1.15,2013-05-11 00:00:00,
2013-05-10 19:05:00,67.8,45.7,29.99,NW,315,2.0,2.0,45,0.00,,,0.00,Wunderground v.1.15,2013-05-11 00:05:00,
2013-05-10 19:15:00,67.7,45.6,29.99,NW,323,1.0,1.0,45,0.00,,,0.00,Wunderground v.1.15,2013-05-11 00:15:00,
2013-05-10 19:21:00,67.6,46.1,30.00,NW,315,1.0,2.0,46,0.00,,,0.00,Wunderground v.1.15,2013-05-11 00:21:00,
2013-05-10 19:30:00,67.4,45.3,30.00,NW,313,2.0,2.0,45,0.00,,,0.00,Wunderground v.1.15,2013-05-11 00:30:00,
2013-05-10 19:40:00,67.3,46.9,29.99,WNW,302,1.0,1.0,48,0.00,,,0.00,Wunderground v.1.15,2013-05-11 00:40:00,
2013-05-10 19:45:00,67.2,46.8,29.99,WNW,295,1.0,1.0,48,0.00,,,0.00,Wunderground v.1.15,2013-05-11 00:45:00,
2013-05-10 19:52:00,67.1,46.2,29.99,NW,314,1.0,1.0,47,0.00,,,0.00,Wunderground v.1.15,2013-05-11 00:52:00,
2013-05-10 20:00:00,66.9,46.6,29.99,NW,315,1.0,2.0,48,0.00,,,0.00,Wunderground v.1.15,2013-05-11 01:00:00,
2013-05-10 20:06:00,66.7,46.4,29.99,NW,315,0.0,2.0,48,0.00,,,0.00,Wunderground v.1.15,2013-05-11 01:06:00,
2013-05-10 20:15:00,66.0,46.8,30.00,NW,315,0.0,0.0,50,0.00,,,0.00,Wunderground v.1.15,2013-05-11 01:15:00,
2013-05-10 20:20:00,65.5,46.4,30.00,NW,315,0.0,0.0,50,0.00,,,0.00,Wunderground v.1.15,2013-05-11 01:20:00,
2013-05-10 20:25:00,65.1,46.0,30.00,NW,315,0.0,0.0,50,0.00,,,0.00,Wunderground v.1.15,2013-05-11 01:25:00,
2013-05-10 20:35:00,64.2,46.2,30.00,NW,315,0.0,0.0,52,0.00,,,0.00,Wunderground v.1.15,2013-05-11 01:35:00,
2013-05-10 20:41:00,63.8,45.8,30.00,NW,315,0.0,0.0,52,0.00,,,0.00,Wunderground v.1.15,2013-05-11 01:41:00,
2013-05-10 20:50:00,63.2,45.3,30.00,NW,315,0.0,0.0,52,0.00,,,0.00,Wunderground v.1.15,2013-05-11 01:50:00,
2013-05-10 21:00:00,62.7,45.8,30.00,NW,315,0.0,0.0,54,0.00,,,0.00,Wunderground v.1.15,2013-05-11 02:00:00,
2013-05-10 21:05:00,62.5,45.6,30.00,NW,315,0.0,0.0,54,0.00,,,0.00,Wunderground v.1.15,2013-05-11 02:05:00,
2013-05-10 21:15:00,62.1,45.2,30.00,North,358,0.0,0.0,54,0.00,,,0.00,Wunderground v.1.15,2013-05-11 02:15:00,
2013-05-10 21:20:00,62.2,45.3,30.00,North,359,0.0,0.0,54,0.00,,,0.00,Wunderground v.1.15,2013-05-11 02:20:00,
2013-05-10 21:30:00,61.8,46.4,30.01,North,359,0.0,0.0,57,0.00,,,0.00,Wunderground v.1.15,2013-05-11 02:30:00,
2013-05-10 21:40:00,61.4,45.6,30.01,North,359,0.0,0.0,56,0.00,,,0.00,Wunderground v.1.15,2013-05-11 02:40:00,
2013-05-10 21:50:00,61.3,45.5,30.01,North,359,0.0,0.0,56,0.00,,,0.00,Wunderground v.1.15,2013-05-11 02:50:00,
2013-05-10 21:55:00,61.1,45.7,30.01,North,359,0.0,0.0,57,0.00,,,0.00,Wunderground v.1.15,2013-05-11 02:55:00,
2013-05-10 22:05:00,61.0,45.7,30.02,North,359,0.0,0.0,57,0.00,,,0.00,Wunderground v.1.15,2013-05-11 03:05:00,
2013-05-10 22:10:00,60.7,46.7,30.02,North,359,0.0,0.0,60,0.00,,,0.00,Wunderground v.1.15,2013-05-11 03:10:00,
2013-05-10 22:20:00,59.3,45.8,30.02,North,358,0.0,0.0,61,0.00,,,0.00,Wunderground v.1.15,2013-05-11 03:20:00,
2013-05-10 22:30:00,58.9,45.5,30.03,ENE,65,0.0,0.0,61,0.00,,,0.00,Wunderground v.1.15,2013-05-11 03:30:00,
2013-05-10 22:40:00,58.6,45.6,30.03,ENE,65,0.0,0.0,62,0.00,,,0.00,Wunderground v.1.15,2013-05-11 03:40:00,
2013-05-10 22:45:00,58.7,45.3,30.03,ENE,65,0.0,0.0,61,0.00,,,0.00,Wunderground v.1.15,2013-05-11 03:45:00,
2013-05-10 22:51:00,58.7,46.1,30.03,ENE,65,0.0,0.0,63,0.00,,,0.00,Wunderground v.1.15,2013-05-11 03:51:00,
2013-05-10 23:00:00,58.1,45.6,30.03,ENE,65,0.0,0.0,63,0.00,,,0.00,Wunderground v.1.15,2013-05-11 04:00:00,
2013-05-10 23:05:00,57.9,45.4,30.03,ENE,65,0.0,0.0,63,0.00,,,0.00,Wunderground v.1.15,2013-05-11 04:05:00,
2013-05-10 23:10:00,58.1,45.6,30.03,ENE,65,0.0,0.0,63,0.00,,,0.00,Wunderground v.1.15,2013-05-11 04:10:00,
2013-05-10 23:15:00,58.3,45.8,30.03,ENE,65,0.0,0.0,63,0.00,,,0.00,Wunderground v.1.15,2013-05-11 04:15:00,
2013-05-10 23:20:00,58.2,45.7,30.03,ENE,65,0.0,0.0,63,0.00,,,0.00,Wunderground v.1.15,2013-05-11 04:20:00,
2013-05-10 23:25:00,58.0,45.9,30.02,ENE,65,0.0,0.0,64,0.00,,,0.00,Wunderground v.1.15,2013-05-11 04:25:00,
2013-05-10 23:30:00,57.9,45.8,30.02,ENE,65,0.0,0.0,64,0.00,,,0.00,Wunderground v.1.15,2013-05-11 04:30:00,
2013-05-10 23:35:00,57.7,46.0,30.03,ENE,65,0.0,0.0,65,0.00,,,0.00,Wunderground v.1.15,2013-05-11 04:35:00,
2013-05-10 23:45:00,57.1,45.8,30.03,ENE,65,0.0,0.0,66,0.00,,,0.00,Wunderground v.1.15,2013-05-11 04:45:00,
2013-05-10 23:50:00,56.7,45.5,30.03,ENE,65,0.0,0.0,66,0.00,,,0.00,Wunderground v.1.15,2013-05-11 04:50:00,